
Distance (Route):
Temperature : -46.7°C
Humidity : 14.0%
Pressure : 283.6hPa| Receiver | Date | Latitude | Longitude | Direction | Speed | Altitude | Climb | Temperature | Humidity | Pressure | Voltage | Killtimer | Uptime | BKT | XDATA |
|---|---|---|---|---|---|---|---|---|---|---|---|---|---|---|---|
| SP4MAZ | 2026-09-05 13:09:27 | 52.44013 | 22.24698 | 0° | 0km/h | 22728m | 0.0m/s | -46.7°C | 14.0% | 283.6hPa | 0V | 00:00:00 | 00:00:00 | 00:00:00 | |
| SP4MAZ | 2026-09-05 13:09:00 | 52.44013 | 22.24698 | 0° | 0km/h | 22728m | 0.0m/s | -47.4°C | 13.3% | 272.2hPa | 0V | 00:00:00 | 00:00:00 | 00:00:00 | |
| SP4MAZ | 2026-09-05 13:08:26 | 52.44013 | 22.24698 | 0° | 0km/h | 22728m | 0.0m/s | -48.4°C | 10.0% | 257.6hPa | 0V | 00:00:00 | 00:00:00 | 00:00:00 | |
| SP4MAZ | 2026-09-05 13:08:00 | 52.44013 | 22.24698 | 0° | 0km/h | 22728m | 0.0m/s | -48.2°C | 7.2% | 247.5hPa | 0V | 00:00:00 | 00:00:00 | 00:00:00 | |
| SP4MAZ | 2026-09-05 13:07:38 | 52.44013 | 22.24698 | 0° | 0km/h | 22728m | 0.0m/s | -48.6°C | 4.9% | 240.1hPa | 0V | 00:00:00 | 00:00:00 | 00:00:00 | |
| SP4MAZ | 2026-09-05 13:07:17 | 52.44013 | 22.24698 | 0° | 0km/h | 22728m | 0.0m/s | -48.2°C | 3.0% | 232.5hPa | 0V | 00:00:00 | 00:00:00 | 00:00:00 | |
| SP4MAZ | 2026-09-05 13:06:56 | 52.44013 | 22.24698 | 0° | 0km/h | 22728m | 0.0m/s | -47.6°C | 1.7% | 225.5hPa | 0V | 00:00:00 | 00:00:00 | 00:00:00 | |
| SP4MAZ | 2026-09-05 13:06:27 | 52.44013 | 22.24698 | 0° | 0km/h | 22728m | 0.0m/s | -45.9°C | 1.1% | 215.9hPa | 0V | 00:00:00 | 00:00:00 | 00:00:00 | |
| SP4MAZ | 2026-09-05 13:06:07 | 52.44013 | 22.24698 | 0° | 0km/h | 22728m | 0.0m/s | -45.5°C | 1.0% | 209.1hPa | 0V | 00:00:00 | 00:00:00 | 00:00:00 | |
| SP4MAZ | 2026-09-05 13:05:46 | 52.44013 | 22.24698 | 0° | 0km/h | 22728m | 0.0m/s | -46.0°C | 1.0% | 201.8hPa | 0V | 00:00:00 | 00:00:00 | 00:00:00 | |
| SP4MAZ | 2026-09-05 13:05:25 | 52.44013 | 22.24698 | 0° | 0km/h | 22728m | 0.0m/s | -46.9°C | 1.0% | 194.6hPa | 0V | 00:00:00 | 00:00:00 | 00:00:00 | |
| SP4MAZ | 2026-09-05 13:05:04 | 52.44013 | 22.24698 | 0° | 0km/h | 22728m | 0.0m/s | -46.8°C | 1.0% | 187.7hPa | 0V | 00:00:00 | 00:00:00 | 00:00:00 | |
| SP4MAZ | 2026-09-05 13:04:42 | 52.44013 | 22.24698 | 0° | 0km/h | 22728m | 0.0m/s | -47.2°C | 1.0% | 180.9hPa | 0V | 00:00:00 | 00:00:00 | 00:00:00 | |
| SP4MAZ | 2026-09-05 13:04:21 | 52.44013 | 22.24698 | 0° | 0km/h | 22728m | 0.0m/s | -48.4°C | 1.1% | 174.2hPa | 0V | 00:00:00 | 00:00:00 | 00:00:00 | |
| SP4MAZ | 2026-09-05 13:04:00 | 52.44013 | 22.24698 | 0° | 0km/h | 22728m | 0.0m/s | -47.5°C | 0.9% | 166.8hPa | 0V | 00:00:00 | 00:00:00 | 00:00:00 | |
| SP4MAZ | 2026-09-05 13:03:39 | 52.44013 | 22.24698 | 0° | 0km/h | 22728m | 0.0m/s | -47.7°C | 0.9% | 160.0hPa | 0V | 00:00:00 | 00:00:00 | 00:00:00 | |
| SP4MAZ | 2026-09-05 13:03:15 | 52.44013 | 22.24698 | 0° | 0km/h | 22728m | 0.0m/s | -48.8°C | 1.0% | 152.9hPa | 0V | 00:00:00 | 00:00:00 | 00:00:00 | |
| SP4MAZ | 2026-09-05 13:02:44 | 52.44013 | 22.24698 | 0° | 0km/h | 22728m | 0.0m/s | -49.0°C | 0% | 143.6hPa | 0V | 00:00:00 | 00:00:00 | 00:00:00 | |
| SP4MAZ | 2026-09-05 13:02:23 | 52.44013 | 22.24698 | 0° | 0km/h | 22728m | 0.0m/s | -48.8°C | 0% | 0hPa | 0V | 00:00:00 | 00:00:00 | 00:00:00 | |
| SP4MAZ | 2026-09-05 13:02:01 | 52.44013 | 22.24698 | 0° | 0km/h | 22728m | 0.0m/s | -47.9°C | 0% | 0hPa | 0V | 00:00:00 | 00:00:00 | 00:00:00 | |
| SP4MAZ | 2026-09-05 13:01:40 | 52.44013 | 22.24698 | 0° | 0km/h | 22728m | 0.0m/s | -48.1°C | 0% | 0hPa | 0V | 00:00:00 | 00:00:00 | 00:00:00 | |
| SP4MAZ | 2026-09-05 13:01:19 | 52.44013 | 22.24698 | 0° | 0km/h | 22728m | 0.0m/s | -49.9°C | 0% | 0hPa | 0V | 00:00:00 | 00:00:00 | 00:00:00 | |
| SP4MAZ | 2026-09-05 13:00:59 | 52.44013 | 22.24698 | 0° | 0km/h | 22728m | 0.0m/s | -49.6°C | 0% | 0hPa | 0V | 00:00:00 | 00:00:00 | 00:00:00 | |
| SP4MAZ | 2026-09-05 13:00:36 | 52.44013 | 22.24698 | 0° | 0km/h | 22728m | 0.0m/s | -49.4°C | 0% | 0hPa | 0V | 00:00:00 | 00:00:00 | 00:00:00 | |
| SP4MAZ | 2026-09-05 13:00:15 | 52.44013 | 22.24698 | 0° | 0km/h | 22728m | 0.0m/s | -49.6°C | 0% | 0hPa | 0V | 00:00:00 | 00:00:00 | 00:00:00 | |
| SP4MAZ | 2026-09-05 12:59:45 | 52.44013 | 22.24698 | 0° | 0km/h | 22728m | 0.0m/s | -50.1°C | 0.8% | 98.1hPa | 0V | 00:00:00 | 00:00:00 | 00:00:00 | |
| SP4MAZ | 2026-09-05 12:59:24 | 52.44013 | 22.24698 | 0° | 0km/h | 22728m | 0.0m/s | -50.7°C | 0% | 93.5hPa | 0V | 00:00:00 | 00:00:00 | 00:00:00 | |
| SP4MAZ | 2026-09-05 12:59:01 | 52.44013 | 22.24698 | 0° | 0km/h | 22728m | 0.0m/s | -50.7°C | 0% | 88.2hPa | 0V | 00:00:00 | 00:00:00 | 00:00:00 | |
| SP4MAZ | 2026-09-05 12:58:39 | 52.44013 | 22.24698 | 0° | 0km/h | 22728m | 0.0m/s | -51.7°C | 0% | 83.5hPa | 0V | 00:00:00 | 00:00:00 | 00:00:00 | |
| SP4MAZ | 2026-09-05 12:58:19 | 52.44013 | 22.24698 | 0° | 0km/h | 22728m | 0.0m/s | -51.8°C | 0% | 79.6hPa | 0V | 00:00:00 | 00:00:00 | 00:00:00 | |
| SP4MAZ | 2026-09-05 12:57:58 | 52.44013 | 22.24698 | 0° | 0km/h | 22728m | 0.0m/s | -52.3°C | 0% | 75.3hPa | 0V | 00:00:00 | 00:00:00 | 00:00:00 | |
| SP4MAZ | 2026-09-05 12:57:38 | 52.44013 | 22.24698 | 0° | 0km/h | 22728m | 0.0m/s | -49.5°C | 0% | 71.6hPa | 0V | 00:00:00 | 00:00:00 | 00:00:00 | |
| SP4MAZ | 2026-09-05 12:57:18 | 52.44013 | 22.24698 | 0° | 0km/h | 22728m | 0.0m/s | -49.7°C | 0% | 68.1hPa | 0V | 00:00:00 | 00:00:00 | 00:00:00 | |
| SP4MAZ | 2026-09-05 12:56:05 | 52.44013 | 22.24698 | 0° | 0km/h | 22728m | 0.0m/s | 0°C | 0% | 0hPa | 0V | 00:00:00 | 00:00:00 | 00:00:00 | |
| SP4MAZ | 2026-09-05 12:55:38 | 52.44013 | 22.24698 | 0° | 0km/h | 22728m | 0.0m/s | -52.6°C | 0% | 52.7hPa | 0V | 00:00:00 | 00:00:00 | 00:00:00 | |
| SP4MAZ | 2026-09-05 12:53:03 | 52.44013 | 22.24698 | 0° | 0km/h | 22728m | 0.0m/s | 0°C | 0% | 0hPa | 0V | 00:00:00 | 00:00:00 | 00:00:00 | |
| SP4MAZ | 2026-09-05 12:52:33 | 52.44013 | 22.24698 | 0° | 0km/h | 22728m | 0.0m/s | -51.9°C | 0% | 0hPa | 0V | 00:00:00 | 00:00:00 | 00:00:00 | |
| SP4MAZ | 2026-09-05 12:42:43 | 52.44013 | 22.24698 | 0° | 0km/h | 22728m | 0.0m/s | 0°C | 0% | 0hPa | 0V | 00:00:00 | 00:00:00 | 00:00:00 | |
| OM5KV | 2026-09-05 12:42:11 | 52.44013 | 22.24698 | 0° | 0km/h | 22728m | 0.0m/s | -40.9°C | 0.4% | 9.6hPa | 0V | 00:00:00 | 00:00:00 | 00:00:00 | |
| OM5KV | 2026-09-05 12:42:06 | 52.44013 | 22.24698 | 0° | 0km/h | 22728m | 0.0m/s | -41.1°C | 0.4% | 9.7hPa | 0V | 00:00:00 | 00:00:00 | 00:00:00 | |
| OM5KV | 2026-09-05 12:42:04 | 52.44013 | 22.24698 | 0° | 0km/h | 22728m | 0.0m/s | -40.9°C | 0.4% | 9.6hPa | 0V | 00:00:00 | 00:00:00 | 00:00:00 | |
| OM5KV | 2026-09-05 12:41:57 | 52.44013 | 22.24698 | 0° | 0km/h | 22728m | 0.0m/s | -40.9°C | 0.4% | 9.7hPa | 0V | 00:00:00 | 00:00:00 | 00:00:00 | |
| OM5KV | 2026-09-05 12:41:55 | 52.44013 | 22.24698 | 0° | 0km/h | 22728m | 0.0m/s | -40.7°C | 0.4% | 9.8hPa | 0V | 00:00:00 | 00:00:00 | 00:00:00 | |
| OM5KV | 2026-09-05 12:41:51 | 52.44013 | 22.24698 | 0° | 0km/h | 22728m | 0.0m/s | -40.8°C | 0.4% | 9.8hPa | 0V | 00:00:00 | 00:00:00 | 00:00:00 | |
| OM5KV | 2026-09-05 12:41:49 | 52.44013 | 22.24698 | 0° | 0km/h | 22728m | 0.0m/s | -40.8°C | 0.4% | 9.8hPa | 0V | 00:00:00 | 00:00:00 | 00:00:00 | |
| OM5KV | 2026-09-05 12:41:43 | 52.44013 | 22.24698 | 0° | 0km/h | 22728m | 0.0m/s | -41.1°C | 0.4% | 9.9hPa | 0V | 00:00:00 | 00:00:00 | 00:00:00 | |
| OM5KV | 2026-09-05 12:41:40 | 52.44013 | 22.24698 | 0° | 0km/h | 22728m | 0.0m/s | -40.8°C | 0.4% | 9.9hPa | 0V | 00:00:00 | 00:00:00 | 00:00:00 | |
| OM5KV | 2026-09-05 12:41:37 | 52.44013 | 22.24698 | 0° | 0km/h | 22728m | 0.0m/s | -40.8°C | 0.4% | 9.9hPa | 0V | 00:00:00 | 00:00:00 | 00:00:00 | |
| OM5KV | 2026-09-05 12:41:34 | 52.44013 | 22.24698 | 0° | 0km/h | 22728m | 0.0m/s | -40.8°C | 0.4% | 10.0hPa | 0V | 00:00:00 | 00:00:00 | 00:00:00 | |
| OM5KV | 2026-09-05 12:41:31 | 52.44013 | 22.24698 | 0° | 0km/h | 22728m | 0.0m/s | -40.9°C | 0.4% | 10.0hPa | 0V | 00:00:00 | 00:00:00 | 00:00:00 | |
| OM5KV | 2026-09-05 12:41:24 | 52.44013 | 22.24698 | 0° | 0km/h | 22728m | 0.0m/s | -40.7°C | 0.4% | 10.1hPa | 0V | 00:00:00 | 00:00:00 | 00:00:00 | |
| OM5KV | 2026-09-05 12:41:19 | 52.44013 | 22.24698 | 0° | 0km/h | 22728m | 0.0m/s | -40.8°C | 0.4% | 10.1hPa | 0V | 00:00:00 | 00:00:00 | 00:00:00 | |
| OM5KV | 2026-09-05 12:41:13 | 52.44013 | 22.24698 | 0° | 0km/h | 22728m | 0.0m/s | -41.5°C | 0.4% | 10.2hPa | 0V | 00:00:00 | 00:00:00 | 00:00:00 | |
| OM5KV | 2026-09-05 12:41:12 | 52.44013 | 22.24698 | 0° | 0km/h | 22728m | 0.0m/s | -41.5°C | 0.4% | 10.2hPa | 0V | 00:00:00 | 00:00:00 | 00:00:00 | |
| OM5KV | 2026-09-05 12:41:08 | 52.44013 | 22.24698 | 0° | 0km/h | 22728m | 0.0m/s | -41.4°C | 0.4% | 10.2hPa | 0V | 00:00:00 | 00:00:00 | 00:00:00 | |
| OM5KV | 2026-09-05 12:41:06 | 52.44013 | 22.24698 | 0° | 0km/h | 22728m | 0.0m/s | -41.5°C | 0.4% | 10.3hPa | 0V | 00:00:00 | 00:00:00 | 00:00:00 | |
| OM5KV | 2026-09-05 12:40:57 | 52.44013 | 22.24698 | 0° | 0km/h | 22728m | 0.0m/s | -41.6°C | 0.4% | 10.3hPa | 0V | 00:00:00 | 00:00:00 | 00:00:00 | |
| OM5KV | 2026-09-05 12:40:55 | 52.44013 | 22.24698 | 0° | 0km/h | 22728m | 0.0m/s | -41.6°C | 0.4% | 10.4hPa | 0V | 00:00:00 | 00:00:00 | 00:00:00 | |
| OM5KV | 2026-09-05 12:40:51 | 52.44013 | 22.24698 | 0° | 0km/h | 22728m | 0.0m/s | -41.5°C | 0.4% | 10.4hPa | 0V | 00:00:00 | 00:00:00 | 00:00:00 | |
| OM5KV | 2026-09-05 12:40:49 | 52.44013 | 22.24698 | 0° | 0km/h | 22728m | 0.0m/s | -41.4°C | 0.4% | 10.4hPa | 0V | 00:00:00 | 00:00:00 | 00:00:00 | |
| OM5KV | 2026-09-05 12:40:46 | 52.44013 | 22.24698 | 0° | 0km/h | 22728m | 0.0m/s | -41.4°C | 0.4% | 10.5hPa | 0V | 00:00:00 | 00:00:00 | 00:00:00 | |
| OM5KV | 2026-09-05 12:40:43 | 52.44013 | 22.24698 | 0° | 0km/h | 22728m | 0.0m/s | -41.6°C | 0.4% | 10.5hPa | 0V | 00:00:00 | 00:00:00 | 00:00:00 | |
| OM5KV | 2026-09-05 12:40:38 | 52.44013 | 22.24698 | 0° | 0km/h | 22728m | 0.0m/s | -41.4°C | 0.4% | 10.6hPa | 0V | 00:00:00 | 00:00:00 | 00:00:00 | |
| OM5KV | 2026-09-05 12:40:37 | 52.44013 | 22.24698 | 0° | 0km/h | 22728m | 0.0m/s | -41.4°C | 0% | 10.6hPa | 0V | 00:00:00 | 00:00:00 | 00:00:00 | |
| OM5KV | 2026-09-05 12:40:32 | 52.44013 | 22.24698 | 0° | 0km/h | 22728m | 0.0m/s | -41.7°C | 0.4% | 10.6hPa | 0V | 00:00:00 | 00:00:00 | 00:00:00 | |
| OM5KV | 2026-09-05 12:40:31 | 52.44013 | 22.24698 | 0° | 0km/h | 22728m | 0.0m/s | 0°C | 0% | 10.6hPa | 0V | 00:00:00 | 00:00:00 | 00:00:00 | |
| OM5KV | 2026-09-05 12:40:27 | 52.44013 | 22.24698 | 0° | 0km/h | 22728m | 0.0m/s | -41.7°C | 0.4% | 10.7hPa | 0V | 00:00:00 | 00:00:00 | 00:00:00 | |
| OM5KV | 2026-09-05 12:40:25 | 52.44013 | 22.24698 | 0° | 0km/h | 22728m | 0.0m/s | 0°C | 0% | 10.7hPa | 0V | 00:00:00 | 00:00:00 | 00:00:00 | |
| OM5KV | 2026-09-05 12:40:20 | 52.44013 | 22.24698 | 0° | 0km/h | 22728m | 0.0m/s | -42.2°C | 0.4% | 10.8hPa | 0V | 00:00:00 | 00:00:00 | 00:00:00 | |
| OM5KV | 2026-09-05 12:40:08 | 52.44013 | 22.24698 | 0° | 0km/h | 22728m | 0.0m/s | -42.4°C | 0% | 0hPa | 0V | 00:00:00 | 00:00:00 | 00:00:00 | |
| OM5KV | 2026-09-05 12:39:59 | 52.44013 | 22.24698 | 0° | 0km/h | 22728m | 0.0m/s | 0°C | 0% | 0hPa | 0V | 00:00:00 | 00:00:00 | 00:00:00 | |
| OM5KV | 2026-09-05 12:39:58 | 52.44013 | 22.24698 | 0° | 0km/h | 22728m | 0.0m/s | -42.2°C | 0% | 0hPa | 0V | 00:00:00 | 00:00:00 | 00:00:00 | |
| OM5KV | 2026-09-05 12:39:48 | 52.44013 | 22.24698 | 0° | 0km/h | 22728m | 0.0m/s | -42.7°C | 0% | 0hPa | 0V | 00:00:00 | 00:00:00 | 00:00:00 | |
| OM5KV | 2026-09-05 12:39:42 | 52.44013 | 22.24698 | 0° | 0km/h | 22728m | 0.0m/s | 0°C | 0% | 0hPa | 0V | 00:00:00 | 00:00:00 | 00:00:00 | |
| OM5KV | 2026-09-05 12:39:34 | 52.44013 | 22.24698 | 0° | 0km/h | 22728m | 0.0m/s | 0°C | 0% | 0hPa | 0V | 00:00:00 | 00:00:00 | 00:00:00 | |
| OM5KV | 2026-09-05 12:39:30 | 52.44013 | 22.24698 | 0° | 0km/h | 22728m | 0.0m/s | 0°C | 0% | 0hPa | 0V | 00:00:00 | 00:00:00 | 00:00:00 | |
| OM5KV | 2026-09-05 12:39:18 | 52.44013 | 22.24698 | 0° | 0km/h | 22728m | 0.0m/s | 0°C | 0% | 0hPa | 0V | 00:00:00 | 00:00:00 | 00:00:00 | |
| OM5KV | 2026-09-05 12:39:16 | 52.44013 | 22.24698 | 0° | 0km/h | 22728m | 0.0m/s | 0°C | 0% | 0hPa | 0V | 00:00:00 | 00:00:00 | 00:00:00 | |
| OM5KV | 2026-09-05 12:39:04 | 52.44013 | 22.24698 | 0° | 0km/h | 22728m | 0.0m/s | 0°C | 0% | 0hPa | 0V | 00:00:00 | 00:00:00 | 00:00:00 | |
| OM5KV | 2026-09-05 12:38:58 | 52.44013 | 22.24698 | 0° | 0km/h | 22728m | 0.0m/s | 0°C | 0% | 0hPa | 0V | 00:00:00 | 00:00:00 | 00:00:00 | |
| OM5KV | 2026-09-05 12:38:48 | 52.44013 | 22.24698 | 0° | 0km/h | 22728m | 0.0m/s | 0°C | 0% | 0hPa | 0V | 00:00:00 | 00:00:00 | 00:00:00 | |
| OM5KV | 2026-09-05 12:38:37 | 52.44013 | 22.24698 | 0° | 0km/h | 22728m | 0.0m/s | 0°C | 0% | 0hPa | 0V | 00:00:00 | 00:00:00 | 00:00:00 | |
| OM5KV | 2026-09-05 12:38:17 | 52.44013 | 22.24698 | 0° | 0km/h | 22728m | 0.0m/s | 0°C | 0% | 0hPa | 0V | 00:00:00 | 00:00:00 | 00:00:00 | |
| SP4MAZ | 2026-09-05 12:38:05 | 52.44013 | 22.24698 | 0° | 0km/h | 22728m | 0.0m/s | -45.5°C | 0% | 0hPa | 0V | 00:00:00 | 00:00:00 | 00:00:00 | |
| OM5KV | 2026-09-05 12:38:00 | 52.44013 | 22.24698 | 0° | 0km/h | 22728m | 0.0m/s | 0°C | 0% | 0hPa | 0V | 00:00:00 | 00:00:00 | 00:00:00 | |
| OM5KV | 2026-09-05 12:37:24 | 52.44013 | 22.24698 | 0° | 0km/h | 22728m | 0.0m/s | 0°C | 0% | 0hPa | 0V | 00:00:00 | 00:00:00 | 00:00:00 | |
| SP4MAZ | 2026-09-05 12:36:47 | 52.44013 | 22.24698 | 0° | 0km/h | 22728m | 0.0m/s | -44.1°C | 0% | 0hPa | 0V | 00:00:00 | 00:00:00 | 00:00:00 | |
| SP4MAZ | 2026-09-05 12:33:55 | 52.44013 | 22.24698 | 0° | 0km/h | 22728m | 0.0m/s | -46.8°C | 0% | 0hPa | 0V | 00:00:00 | 00:00:00 | 00:00:00 | |
| SP4MAZ | 2026-09-05 12:33:32 | 52.44013 | 22.24698 | 0° | 0km/h | 22728m | 0.0m/s | -46.5°C | 0% | 0hPa | 0V | 00:00:00 | 00:00:00 | 00:00:00 | |
| SP4MAZ | 2026-09-05 12:28:43 | 52.44013 | 22.24698 | 0° | 0km/h | 22728m | 0.0m/s | -48.9°C | 0% | 0hPa | 0V | 00:00:00 | 00:00:00 | 00:00:00 | |
| SP4MAZ | 2026-09-05 12:28:08 | 52.44013 | 22.24698 | 0° | 0km/h | 22728m | 0.0m/s | 0°C | 0% | 0hPa | 0V | 00:00:00 | 00:00:00 | 00:00:00 | |
| SP4MAZ | 2026-09-05 12:27:47 | 52.44013 | 22.24698 | 0° | 0km/h | 22728m | 0.0m/s | 0°C | 0% | 0hPa | 0V | 00:00:00 | 00:00:00 | 00:00:00 | |
| SP4MAZ | 2026-09-05 12:25:43 | 52.44013 | 22.24698 | 0° | 0km/h | 22728m | 0.0m/s | -51.2°C | 0% | 0hPa | 0V | 00:00:00 | 00:00:00 | 00:00:00 | |
| SP4MAZ | 2026-09-05 12:25:22 | 52.44013 | 22.24698 | 0° | 0km/h | 22728m | 0.0m/s | -51.5°C | 0% | 0hPa | 0V | 00:00:00 | 00:00:00 | 00:00:00 | |
| SP4MAZ | 2026-09-05 12:25:02 | 52.44013 | 22.24698 | 0° | 0km/h | 22728m | 0.0m/s | -51.6°C | 0% | 0hPa | 0V | 00:00:00 | 00:00:00 | 00:00:00 | |
| SP4MAZ | 2026-09-05 12:24:25 | 52.44013 | 22.24698 | 0° | 0km/h | 22728m | 0.0m/s | -52.1°C | 0% | 0hPa | 0V | 00:00:00 | 00:00:00 | 00:00:00 | |
| SP4MAZ | 2026-09-05 12:24:05 | 52.44013 | 22.24698 | 0° | 0km/h | 22728m | 0.0m/s | -52.4°C | 0% | 0hPa | 0V | 00:00:00 | 00:00:00 | 00:00:00 | |
| SP4MAZ | 2026-09-05 12:23:44 | 52.44013 | 22.24698 | 0° | 0km/h | 22728m | 0.0m/s | -52.2°C | 0% | 0hPa | 0V | 00:00:00 | 00:00:00 | 00:00:00 | |
| SP4MAZ | 2026-09-05 12:21:22 | 52.44013 | 22.24698 | 0° | 0km/h | 22728m | 0.0m/s | -51.4°C | 0% | 0hPa | 0V | 00:00:00 | 00:00:00 | 00:00:00 | |
| SP4MAZ | 2026-09-05 12:20:08 | 52.44013 | 22.24698 | 0° | 0km/h | 22728m | 0.0m/s | 0°C | 0% | 0hPa | 0V | 00:00:00 | 00:00:00 | 00:00:00 | |
| SP4MAZ | 2026-09-05 12:19:41 | 52.44180 | 22.24615 | 78° | 16km/h | 22636m | 5.0m/s | -50.4°C | 0% | 0hPa | 0V | 00:00:00 | 00:00:00 | 00:00:00 | |
| SP4MAZ | 2026-09-05 12:18:30 | 52.44229 | 22.24208 | 131° | 20km/h | 22172m | 5.2m/s | 0°C | 0% | 0hPa | 0V | 00:00:00 | 00:00:00 | 00:00:00 | |
| SP4MAZ | 2026-09-05 12:18:05 | 52.44275 | 22.24021 | 111° | 26km/h | 22030m | 5.4m/s | 0°C | 0% | 0hPa | 0V | 00:00:00 | 00:00:00 | 00:00:00 | |
| SP3WXH-11 | 2026-09-05 12:18:01 | 52.44292 | 22.23917 | 104° | 35km/h | 21985m | 5.4m/s | -50.9°C | 0.9% | 42.5hPa | 0V | 00:00:00 | 00:00:00 | 00:00:00 | |
| SP4MAZ | 2026-09-05 12:17:39 | 52.44293 | 22.23684 | 77° | 38km/h | 21886m | 6.8m/s | 0°C | 0% | 0hPa | 0V | 00:00:00 | 00:00:00 | 00:00:00 | |
| SP3WXH-11 | 2026-09-05 12:17:30 | 52.44273 | 22.23555 | 79° | 24km/h | 21816m | 7.1m/s | -51.5°C | 0.9% | 43.7hPa | 0V | 00:00:00 | 00:00:00 | 00:00:00 | |
| SP3WXH-11 | 2026-09-05 12:16:59 | 52.44315 | 22.23303 | 119° | 20km/h | 21626m | 5.9m/s | -51.9°C | 0.9% | 45.0hPa | 0V | 00:00:00 | 00:00:00 | 00:00:00 | |
| SP3WXH-11 | 2026-09-05 12:16:28 | 52.44382 | 22.22925 | 101° | 40km/h | 21441m | 5.6m/s | -52.6°C | 0.9% | 46.3hPa | 0V | 00:00:00 | 00:00:00 | 00:00:00 | |
| SP4MAZ | 2026-09-05 12:16:20 | 52.44391 | 22.22817 | 91° | 38km/h | 21402m | 5.1m/s | 0°C | 0% | 0hPa | 0V | 00:00:00 | 00:00:00 | 00:00:00 | |
| SP3WXH-11 | 2026-09-05 12:15:57 | 52.44388 | 22.22394 | 84° | 38km/h | 21257m | 6.6m/s | -53.2°C | 1.0% | 47.7hPa | 0V | 00:00:00 | 00:00:00 | 00:00:00 | |
| SP4MAZ | 2026-09-05 12:15:50 | 52.44387 | 22.22315 | 91° | 38km/h | 21227m | 7.0m/s | -53.1°C | 0% | 0hPa | 0V | 00:00:00 | 00:00:00 | 00:00:00 | |
| SP3WXH-11 | 2026-09-05 12:15:25 | 52.44345 | 22.21930 | 77° | 33km/h | 21072m | 4.6m/s | -53.1°C | 1.0% | 49.0hPa | 0V | 00:00:00 | 00:00:00 | 00:00:00 | |
| SP4MAZ | 2026-09-05 12:15:09 | 52.44343 | 22.21726 | 91° | 31km/h | 20973m | 5.4m/s | 0°C | 0% | 0hPa | 0V | 00:00:00 | 00:00:00 | 00:00:00 | |
| SP3WXH-11 | 2026-09-05 12:14:54 | 52.44339 | 22.21502 | 88° | 37km/h | 20884m | 5.2m/s | -53.5°C | 1.0% | 50.5hPa | 0V | 00:00:00 | 00:00:00 | 00:00:00 | |
| SP4MAZ | 2026-09-05 12:14:46 | 52.44331 | 22.21386 | 77° | 42km/h | 20844m | 6.8m/s | 0°C | 0% | 0hPa | 0V | 00:00:00 | 00:00:00 | 00:00:00 | |
| SP4MAZ | 2026-09-05 12:14:24 | 52.44282 | 22.21063 | 73° | 35km/h | 20709m | 6.0m/s | 0°C | 0% | 0hPa | 0V | 00:00:00 | 00:00:00 | 00:00:00 | |
| SP4MAZ | 2026-09-05 12:14:01 | 52.44208 | 22.20869 | 27° | 20km/h | 20578m | 6.8m/s | 0°C | 0% | 0hPa | 0V | 00:00:00 | 00:00:00 | 00:00:00 | |
| SP3WXH-11 | 2026-09-05 12:13:52 | 52.44165 | 22.20820 | 29° | 16km/h | 20518m | 7.4m/s | -53.2°C | 1.1% | 53.5hPa | 0V | 00:00:00 | 00:00:00 | 00:00:00 | |
| SP4MAZ | 2026-09-05 12:13:40 | 52.44120 | 22.20775 | 39° | 16km/h | 20450m | 4.5m/s | 0°C | 0% | 0hPa | 0V | 00:00:00 | 00:00:00 | 00:00:00 | |
| SP3WXH-11 | 2026-09-05 12:13:21 | 52.44094 | 22.20709 | 87° | 11km/h | 20329m | 5.9m/s | -52.1°C | 1.0% | 55.1hPa | 0V | 00:00:00 | 00:00:00 | 00:00:00 | |
| SP4MAZ | 2026-09-05 12:13:20 | 52.44094 | 22.20709 | 89° | 11km/h | 20329m | 5.9m/s | 0°C | 0% | 0hPa | 0V | 00:00:00 | 00:00:00 | 00:00:00 | |
| SP4MAZ | 2026-09-05 12:13:00 | 52.44115 | 22.20619 | 118° | 26km/h | 20210m | 4.9m/s | 0°C | 0% | 0hPa | 0V | 00:00:00 | 00:00:00 | 00:00:00 | |
| SP4MAZ | 2026-09-05 12:12:37 | 52.44162 | 22.20430 | 100° | 16km/h | 20087m | 5.4m/s | 0°C | 0% | 0hPa | 0V | 00:00:00 | 00:00:00 | 00:00:00 | |
| SP3WXH-11 | 2026-09-05 12:12:19 | 52.44183 | 22.20192 | 100° | 31km/h | 19983m | 6.4m/s | -50.4°C | 0.9% | 58.1hPa | 0V | 00:00:00 | 00:00:00 | 00:00:00 | |
| SP4MAZ | 2026-09-05 12:12:07 | 52.44189 | 22.20033 | 90° | 35km/h | 19921m | 6.6m/s | 0°C | 0% | 0hPa | 0V | 00:00:00 | 00:00:00 | 00:00:00 | |
| SP3WXH-11 | 2026-09-05 12:11:48 | 52.44188 | 22.19690 | 89° | 49km/h | 19812m | 5.4m/s | -50.3°C | 0.9% | 59.6hPa | 0V | 00:00:00 | 00:00:00 | 00:00:00 | |
| SP4MAZ | 2026-09-05 12:11:45 | 52.44186 | 22.19651 | 81° | 44km/h | 19802m | 4.9m/s | 0°C | 0% | 0hPa | 0V | 00:00:00 | 00:00:00 | 00:00:00 | |
| SP3WXH-11 | 2026-09-05 12:11:17 | 52.44085 | 22.19153 | 71° | 40km/h | 19641m | 5.9m/s | -51.0°C | 0.9% | 61.2hPa | 0V | 00:00:00 | 00:00:00 | 00:00:00 | |
| SP3WXH-11 | 2026-09-05 12:10:46 | 52.44011 | 22.18735 | 80° | 27km/h | 19465m | 3.8m/s | -50.4°C | 0.9% | 62.9hPa | 0V | 00:00:00 | 00:00:00 | 00:00:00 | |
| SP4MAZ | 2026-09-05 12:10:43 | 52.44010 | 22.18703 | 103° | 24km/h | 19447m | 5.7m/s | 0°C | 0% | 0hPa | 0V | 00:00:00 | 00:00:00 | 00:00:00 | |
| SP3WXH-11 | 2026-09-05 12:10:15 | 52.44017 | 22.18461 | 96° | 20km/h | 19286m | 6.0m/s | -50.2°C | 0.9% | 64.6hPa | 0V | 00:00:00 | 00:00:00 | 00:00:00 | |
| SP3WXH-11 | 2026-09-05 12:09:44 | 52.44069 | 22.18066 | 101° | 38km/h | 19099m | 5.4m/s | -50.2°C | 0.9% | 66.5hPa | 0V | 00:00:00 | 00:00:00 | 00:00:00 | |
| SP3WXH-11 | 2026-09-05 12:09:13 | 52.44071 | 22.17486 | 90° | 53km/h | 18916m | 5.7m/s | -50.3°C | 0.9% | 68.4hPa | 0V | 00:00:00 | 00:00:00 | 00:00:00 | |
| SP4MAZ | 2026-09-05 12:09:06 | 52.44060 | 22.17340 | 72° | 46km/h | 18874m | 5.6m/s | 0°C | 0% | 0hPa | 0V | 00:00:00 | 00:00:00 | 00:00:00 | |
| SP3WXH-11 | 2026-09-05 12:08:42 | 52.43988 | 22.16929 | 83° | 40km/h | 18738m | 4.8m/s | -50.8°C | 0.9% | 70.3hPa | 0V | 00:00:00 | 00:00:00 | 00:00:00 | |
| SP4MAZ | 2026-09-05 12:08:23 | 52.43950 | 22.16597 | 79° | 49km/h | 18634m | 6.9m/s | 0°C | 0% | 0hPa | 0V | 00:00:00 | 00:00:00 | 00:00:00 | |
| SP3WXH-11 | 2026-09-05 12:08:11 | 52.43935 | 22.16320 | 82° | 53km/h | 18560m | 5.9m/s | -51.9°C | 1.0% | 72.3hPa | 0V | 00:00:00 | 00:00:00 | 00:00:00 | |
| SP3WXH-11 | 2026-09-05 12:07:40 | 52.43845 | 22.15587 | 75° | 47km/h | 18389m | 5.3m/s | -52.5°C | 1.0% | 74.2hPa | 0V | 00:00:00 | 00:00:00 | 00:00:00 | |
| SP3WXH-11 | 2026-09-05 12:07:09 | 52.43731 | 22.14900 | 64° | 64km/h | 18223m | 6.3m/s | -53.6°C | 1.1% | 76.1hPa | 0V | 00:00:00 | 00:00:00 | 00:00:00 | |
| SP4MAZ | 2026-09-05 12:07:05 | 52.43710 | 22.14833 | 65° | 58km/h | 18207m | 6.8m/s | 0°C | 0% | 0hPa | 0V | 00:00:00 | 00:00:00 | 00:00:00 | |
| SP3WXH-11 | 2026-09-05 12:06:38 | 52.43502 | 22.14291 | 56° | 44km/h | 18046m | 5.8m/s | -52.3°C | 1.1% | 78.2hPa | 0V | 00:00:00 | 00:00:00 | 00:00:00 | |
| SP3WXH-11 | 2026-09-05 12:06:07 | 52.43310 | 22.13843 | 49° | 42km/h | 17886m | 4.8m/s | -51.2°C | 1.0% | 80.2hPa | 0V | 00:00:00 | 00:00:00 | 00:00:00 | |
| SP3WXH-11 | 2026-09-05 12:05:36 | 52.43212 | 22.13476 | 81° | 42km/h | 17675m | 4.4m/s | -49.8°C | 1.0% | 82.9hPa | 0V | 00:00:00 | 00:00:00 | 00:00:00 | |
| SP3WXH-11 | 2026-09-05 12:05:05 | 52.43233 | 22.12999 | 99° | 38km/h | 17492m | 6.3m/s | -49.6°C | 0.9% | 85.2hPa | 0V | 00:00:00 | 00:00:00 | 00:00:00 | |
| SP3WXH-11 | 2026-09-05 12:04:34 | 52.43326 | 22.12346 | 92° | 55km/h | 17314m | 5.2m/s | -49.6°C | 0.9% | 87.6hPa | 0V | 00:00:00 | 00:00:00 | 00:00:00 | |
| SP3WXH-11 | 2026-09-05 12:04:03 | 52.43334 | 22.11530 | 92° | 64km/h | 17144m | 4.0m/s | -50.0°C | 0.9% | 89.9hPa | 0V | 00:00:00 | 00:00:00 | 00:00:00 | |
| SP3WXH-11 | 2026-09-05 12:03:32 | 52.43367 | 22.10620 | 92° | 75km/h | 16979m | 5.6m/s | -50.7°C | 1.0% | 92.2hPa | 0V | 00:00:00 | 00:00:00 | 00:00:00 | |
| SP3WXH-11 | 2026-09-05 12:03:01 | 52.43297 | 22.09672 | 82° | 71km/h | 16812m | 4.8m/s | -50.7°C | 1.0% | 94.5hPa | 0V | 00:00:00 | 00:00:00 | 00:00:00 | |
| SP3WXH-11 | 2026-09-05 12:02:30 | 52.43166 | 22.08962 | 68° | 49km/h | 16651m | 6.2m/s | -50.7°C | 1.1% | 96.9hPa | 0V | 00:00:00 | 00:00:00 | 00:00:00 | |
| SP3WXH-11 | 2026-09-05 12:01:59 | 52.43057 | 22.08287 | 79° | 58km/h | 16487m | 6.1m/s | -49.9°C | 1.1% | 99.4hPa | 0V | 00:00:00 | 00:00:00 | 00:00:00 | |
| SP3WXH-11 | 2026-09-05 12:01:27 | 52.43002 | 22.07434 | 87° | 68km/h | 16316m | 6.5m/s | -49.7°C | 1.0% | 102.0hPa | 0V | 00:00:00 | 00:00:00 | 00:00:00 | |
| SP3WXH-11 | 2026-09-05 12:00:57 | 52.42973 | 22.06481 | 81° | 71km/h | 16146m | 7.0m/s | -50.0°C | 1.1% | 104.7hPa | 0V | 00:00:00 | 00:00:00 | 00:00:00 | |
| SP3WXH-11 | 2026-09-05 12:00:25 | 52.42879 | 22.05595 | 76° | 66km/h | 15981m | 5.3m/s | 0°C | -1.0% | 107.4hPa | 0V | 00:00:00 | 00:00:00 | 00:00:00 | |
| SP3WXH-11 | 2026-09-05 11:59:55 | 52.42757 | 22.04726 | 83° | 69km/h | 15807m | 6.6m/s | 0°C | -1.0% | -1.0hPa | 0V | 00:00:00 | 00:00:00 | 00:00:00 | |
| SP4MAZ | 2026-09-05 11:59:39 | 52.42760 | 22.04303 | 100° | 77km/h | 15726m | 4.4m/s | 0°C | 0% | 0hPa | 0V | 00:00:00 | 00:00:00 | 00:00:00 | |
| SP4MAZ | 2026-09-05 11:36:17 | 52.37397 | 21.34071 | 84° | 128km/h | 7836m | 8.2m/s | 0°C | 0% | 0hPa | 0V | 00:00:00 | 00:00:00 | 00:00:00 | |
| SP4MAZ | 2026-09-05 11:35:10 | 52.37171 | 21.30754 | 95° | 111km/h | 7429m | 6.5m/s | 0°C | 0% | 0hPa | 0V | 00:00:00 | 00:00:00 | 00:00:00 | |
| SP4MAZ | 2026-09-05 11:32:54 | 52.37453 | 21.24742 | 91° | 120km/h | 6577m | 4.5m/s | 0°C | 0% | 0hPa | 0V | 00:00:00 | 00:00:00 | 00:00:00 | |
| SP4MAZ | 2026-09-05 11:32:33 | 52.37479 | 21.23781 | 94° | 106km/h | 6465m | 7.2m/s | 0°C | 0% | 0hPa | 0V | 00:00:00 | 00:00:00 | 00:00:00 | |
| SP4MAZ | 2026-09-05 11:32:12 | 52.37534 | 21.22825 | 93° | 106km/h | 6342m | 7.5m/s | 0°C | 0% | 0hPa | 0V | 00:00:00 | 00:00:00 | 00:00:00 | |
| SP4MAZ | 2026-09-05 11:31:26 | 52.37670 | 21.20780 | 99° | 106km/h | 6063m | 5.9m/s | 0°C | 0% | 0hPa | 0V | 00:00:00 | 00:00:00 | 00:00:00 | |
| SP4MAZ | 2026-09-05 11:31:05 | 52.37729 | 21.19932 | 96° | 106km/h | 5945m | 7.4m/s | 0°C | 0% | 0hPa | 0V | 00:00:00 | 00:00:00 | 00:00:00 | |
| SP4MAZ | 2026-09-05 11:30:44 | 52.37787 | 21.19056 | 93° | 104km/h | 5816m | 6.2m/s | 0°C | 0% | 0hPa | 0V | 00:00:00 | 00:00:00 | 00:00:00 | |
| SP4MAZ | 2026-09-05 11:30:21 | 52.37873 | 21.18109 | 98° | 110km/h | 5677m | 5.7m/s | 0°C | 0% | 0hPa | 0V | 00:00:00 | 00:00:00 | 00:00:00 |